Weather History for PARC - January, 2013

Change the Weather History Date:

Friday, January 4, 2013

  Actual Average Record
Temperature  
Mean Temperature -8 °F -  
Max Temperature -2 °F -12 °F 15 °F (2011)
Min Temperature -14 °F -27 °F -58 °F (1997)
Degree Days  
Heating Degree Days 73    
Moisture  
Dew Point -21 °F    
Average Humidity 55    
Maximum Humidity 100    
Minimum Humidity 29    
Precipitation  
Precipitation 0.00 in - - ()
Sea Level Pressure  
Sea Level Pressure 29.76 in    
Wind  
Wind Speed 0 mph (North)    
Max Wind Speed 0 mph    
Max Gust Speed -    
Visibility 10 miles    
Events      
Averages and records for this station are not official NWS values.
T = Trace of Precipitation, MM = Missing Value Source: NWS Daily Summary

Daily Weather History Graph

Daily Weather History Graph

Search for Another Location

Airport or City:

Trip Planner

Search our weather history database for the weather conditions in past years. The results will help you decide how hot, cold, wet, or windy it might be!

Date:

Astronomy

Jan. 04, 2013 Rise Set
Actual Time 12:25 PM AKST 1:10 PM AKST
Civil Twilight 9:56 AM AKST 3:39 PM AKST
Nautical Twilight 8:30 AM AKST 5:05 PM AKST
Astronomical Twilight 7:19 AM AKST 6:15 PM AKST
Moon 12:55 AM AKST (1/4) 10:59 AM AKST (1/4)
Length of Visible Light 5h 42m
Length of Day
0h 44m
Waning Gibbous, 53% of the Moon is Illuminated
Jan 4
Waning Gibbous
Jan 4
Last Quarter
Jan 11
New
Jan 18
First Quarter
Jan 26
Full

Hourly Weather History & Observations

Time (AKST) Temp. Dew Point Humidity Pressure Visibility Wind Dir Wind Speed Gust Speed Precip Events Conditions
12:16 AM -5.8 °F -11.2 °F 77% 29.74 in 10.0 mi Calm Calm - N/A   Clear
12:36 AM -4.0 °F -25.6 °F 35% 29.73 in 10.0 mi Calm Calm - N/A   Clear
12:56 AM -4.0 °F -29.2 °F 29% 29.73 in 10.0 mi Calm Calm - N/A   Clear
1:16 AM -4.0 °F -5.8 °F 92% 29.73 in 10.0 mi Calm Calm - N/A   Clear
1:36 AM -2.2 °F -9.4 °F 71% 29.73 in 10.0 mi Calm Calm - N/A   Clear
1:56 AM -4.0 °F -27.4 °F 32% 29.73 in 10.0 mi Calm Calm - N/A   Clear
2:16 AM -5.8 °F -16.6 °F 60% 29.73 in 10.0 mi Calm Calm - N/A   Clear
2:36 AM -4.0 °F -16.6 °F 55% 29.73 in 10.0 mi Calm Calm - N/A   Clear
2:56 AM -5.8 °F -9.4 °F 84% 29.73 in 10.0 mi Calm Calm - N/A   Clear
3:16 AM -5.8 °F -23.8 °F 42% 29.73 in 10.0 mi Calm Calm - N/A   Clear
3:36 AM -11.2 °F -20.2 °F 64% 29.73 in 10.0 mi Calm Calm - N/A   Clear
4:16 AM -5.8 °F -11.2 °F 77% 29.72 in 10.0 mi Calm Calm - N/A   Clear
4:36 AM -4.0 °F - N/A% 29.72 in 10.0 mi Calm Calm - N/A   Clear
4:56 AM -5.8 °F - N/A% 29.72 in 10.0 mi Calm Calm - N/A   Clear
5:16 AM -2.2 °F -2.2 °F 100% 29.72 in 10.0 mi Calm Calm - N/A   Clear
5:36 AM -5.8 °F -18.4 °F 55% 29.72 in 10.0 mi Calm Calm - N/A   Clear
5:56 AM -7.6 °F -7.6 °F 100% 29.72 in 10.0 mi Calm Calm - N/A   Clear
6:16 AM -5.8 °F -13.0 °F 71% 29.72 in 10.0 mi Calm Calm - N/A   Clear
6:36 AM -4.0 °F - N/A% 29.73 in 10.0 mi Calm Calm - N/A   Clear
6:56 AM -7.6 °F - N/A% 29.73 in 10.0 mi Calm Calm - N/A   Clear
7:16 AM -2.2 °F - N/A% 29.73 in 10.0 mi Calm Calm - N/A   Clear
7:36 AM -11.2 °F - N/A% 29.72 in 10.0 mi Calm Calm - N/A   Clear
7:56 AM -11.2 °F - N/A% 29.72 in 10.0 mi Calm Calm - N/A   Clear
8:16 AM -7.6 °F -20.2 °F 54% 29.73 in 10.0 mi Calm Calm - N/A   Clear
8:36 AM -11.2 °F -27.4 °F 45% 29.73 in 10.0 mi Calm Calm - N/A   Clear
8:56 AM -9.4 °F -27.4 °F 41% 29.73 in 10.0 mi Calm Calm - N/A   Clear
9:16 AM -5.8 °F - N/A% 29.74 in 10.0 mi Calm Calm - N/A   Clear
9:36 AM -2.2 °F -25.6 °F 32% 29.74 in 10.0 mi Calm Calm - N/A   Clear
9:56 AM -7.6 °F -23.8 °F 45% 29.74 in 10.0 mi Calm Calm - N/A   Clear
10:16 AM -7.6 °F -18.4 °F 59% 29.75 in 10.0 mi Calm Calm - N/A   Clear
10:36 AM -11.2 °F - N/A% 29.75 in 10.0 mi Calm Calm - N/A   Clear
10:56 AM -9.4 °F -27.4 °F 41% 29.76 in 8.0 mi Calm Calm - N/A   Clear
11:16 AM -5.8 °F -16.6 °F 60% 29.76 in 10.0 mi Calm Calm - N/A   Clear
11:36 AM -11.2 °F - N/A% 29.76 in 10.0 mi Calm Calm - N/A   Clear
11:56 AM -9.4 °F - N/A% 29.76 in 10.0 mi Calm Calm - N/A   Clear
12:16 PM -5.8 °F - N/A% 29.77 in 10.0 mi Calm Calm - N/A   Clear
12:36 PM -9.4 °F - N/A% 29.77 in 7.0 mi Calm Calm - N/A   Clear
12:56 PM -9.4 °F -27.4 °F 41% 29.77 in 10.0 mi Calm Calm - N/A   Clear
1:16 PM -9.4 °F -29.2 °F 37% 29.77 in 10.0 mi Calm Calm - N/A   Clear
1:36 PM -11.2 °F -27.4 °F 45% 29.78 in 10.0 mi Calm Calm - N/A   Clear
1:56 PM -7.6 °F -7.6 °F 100% 29.77 in 10.0 mi Calm Calm - N/A   Clear
2:16 PM -5.8 °F - N/A% 29.77 in 10.0 mi Calm Calm - N/A   Clear
2:36 PM -7.6 °F -27.4 °F 38% 29.77 in 10.0 mi Calm Calm - N/A   Clear
2:56 PM -9.4 °F -27.4 °F 41% 29.77 in 10.0 mi Calm Calm - N/A   Clear
3:16 PM -11.2 °F -29.2 °F 41% 29.78 in 10.0 mi Calm Calm - N/A   Clear
3:36 PM -5.8 °F -11.2 °F 77% 29.78 in 10.0 mi Calm Calm - N/A   Clear
3:56 PM -9.4 °F -27.4 °F 41% 29.78 in 10.0 mi Calm Calm - N/A   Clear
4:16 PM -9.4 °F -18.4 °F 65% 29.79 in 10.0 mi Calm Calm - N/A   Clear
4:36 PM -9.4 °F - N/A% 29.79 in 10.0 mi Calm Calm - N/A   Clear
4:56 PM -7.6 °F -29.2 °F 34% 29.79 in 10.0 mi Calm Calm - N/A   Clear
5:16 PM -7.6 °F -27.4 °F 38% 29.79 in 10.0 mi Calm Calm - N/A   Clear
5:36 PM -14.8 °F - N/A% 29.79 in 10.0 mi Calm Calm - N/A   Clear
5:56 PM -11.2 °F - N/A% 29.79 in 8.0 mi Calm Calm - N/A   Clear
6:16 PM -5.8 °F - N/A% 29.79 in 10.0 mi Calm Calm - N/A   Clear
6:36 PM -5.8 °F - N/A% 29.79 in 10.0 mi Calm Calm - N/A   Clear
6:56 PM -5.8 °F -27.4 °F 35% 29.80 in 10.0 mi Calm Calm - N/A   Clear
7:16 PM -5.8 °F -23.8 °F 42% 29.80 in 10.0 mi Calm Calm - N/A   Clear
7:36 PM -9.4 °F -25.6 °F 45% 29.80 in 10.0 mi Calm Calm - N/A   Clear
7:56 PM -11.2 °F -29.2 °F 41% 29.80 in 9.0 mi Calm Calm - N/A   Clear
8:16 PM -4.0 °F -9.4 °F 78% 29.80 in 10.0 mi Calm Calm - N/A   Clear
8:36 PM -7.6 °F - N/A% 29.79 in 10.0 mi Calm Calm - N/A   Clear
8:56 PM -11.2 °F - N/A% 29.80 in 9.0 mi Calm Calm - N/A   Clear
9:16 PM -11.2 °F - N/A% 29.81 in 10.0 mi Calm Calm - N/A   Clear
9:36 PM -13.0 °F - N/A% 29.80 in 7.0 mi Calm Calm - N/A   Clear
9:56 PM -11.2 °F - N/A% 29.80 in 7.0 mi Calm Calm - N/A   Clear
10:16 PM -13.0 °F - N/A% 29.81 in 9.0 mi Calm Calm - N/A   Clear
10:36 PM -13.0 °F -25.6 °F 53% 29.81 in 9.0 mi Calm Calm - N/A   Clear
10:56 PM -14.8 °F -29.2 °F 48% 29.81 in 10.0 mi Calm Calm - N/A   Clear
11:16 PM -13.0 °F -23.8 °F 59% 29.82 in 10.0 mi Calm Calm - N/A   Clear
11:36 PM -11.2 °F - N/A% 29.82 in 10.0 mi Calm Calm - N/A   Clear
11:56 PM -11.2 °F - N/A% 29.82 in 9.0 mi Calm Calm - N/A   Clear